Погода в Адыге-Хабле

Россия / Карачаево-Черкесская Республика     44°20′00″N   41°56′05″E
темп.,
°C
ветер,
м/с
пор.,
м/с
влажн.,
%
обл.,
%
осадки,
мм/ч
давл.,
гПа
погр.,
м
15 мая, сб
сб1500:00+15юз335814 0.0 101232
03:00+15юз335299 0.0 101329
06:00+15юз22640 0.0 101330
09:00+22сз22580 0.0 1014398
12:00+24с32625 0.0 1013812
15:00+25ссв45615 0.0 10131269
18:00+22св2478100 0.9 101378
21:00+16ююз3390100 2.0 101448
16 мая, вс
вс1600:00+15ю2285100 0.1 101221
03:00+14ююз228672 0.1 101123
06:00+15ююз228233 0.0 101146
09:00+21в237097 0.0 1009549
12:00+25в556013 0.0 10071313
15:00+25в77615 0.0 10061256
18:00+23в51076100 0.0 1005425
21:00+18юв238887 0.0 100545
17 мая, пн
пн1700:00+17ююв2280100 0.0 100523
03:00+16ю23683 0.0 100423
06:00+16ююз22665 0.0 100521
09:00+23сз23555 0.0 1006419
12:00+25ссз546427 0.0 10061054
15:00+19сз6890100 6.4 1007307
18:00+17сз2396100 10.1 1011164
21:00+15зсз2297100 10.3 101263
18 мая, вт
вт1800:00+15зсз119589 0.4 101113
03:00+14зсз2397100 0.9 1012136
06:00+13зсз2697100 4.9 1014295
09:00+15з338286 5.8 1014551
12:00+20ссз346444 0.0 10141360
15:00+20с446482 0.4 10131373
18:00+17сз2387100 3.1 1015194
21:00+13юз119130 4.2 101611
19 мая, ср
ср1900:00+12юз229384 0.0 101715
03:00+12ююз22910 0.0 101724
06:00+12ю23860 0.0 101872
09:00+19вюв22665 0.0 1016526
12:00+22в455787 0.0 10151282
15:00+23в675873 0.0 10141317
18:00+21в61174100 0.0 1013712
21:00+18вюв7147211 0.0 1014545